Montrose, CO

1:46 PM MDT on March 27, 2017 (GMT -0600)
Montrose Regional

Weather History for KMTJ - January, 2013

Change the Weather History Date:

Thursday, January 10, 2013

  Actual Average Record
Temperature  
Mean Temperature 29 °F 26 °F  
Max Temperature 48 °F 37 °F 52 °F (2005)
Min Temperature 9 °F 14 °F -2 °F (2011)
Degree Days  
Heating Degree Days 36 40  
Month to date heating degree days 520 400  
Since 1 July heating degree days 2797 3008  
Cooling Degree Days 0 0  
Month to date cooling degree days 0 0  
Year to date cooling degree days 0 0  
Moisture  
Dew Point 17 °F    
Average Humidity 62    
Maximum Humidity 84    
Minimum Humidity 40    
Precipitation  
Precipitation 0.00 in 0.02 in 0.00 in (2017)
Month to date precipitation T 0.22  
Year to date precipitation T 0.22  
Sea Level Pressure  
Sea Level Pressure 29.85 in    
Wind  
Wind Speed 7 mph (SSE)    
Max Wind Speed 30 mph    
Max Gust Speed 37 mph    
Visibility 10 miles    
Events      
T = Trace of Precipitation, MM = Missing Value Source: NWS Daily Summary

Daily Weather History Graph

Daily Weather History Graph

Search for Another Location

Airport or City:

Trip Planner

Search our weather history database for the weather conditions in past years. The results will help you decide how hot, cold, wet, or windy it might be!

Date:

Astronomy

Jan. 10, 2013 Rise Set
Actual Time 7:28 AM MST 5:09 PM MST
Civil Twilight 6:59 AM MST 5:39 PM MST
Nautical Twilight 6:26 AM MST 6:12 PM MST
Astronomical Twilight 5:54 AM MST 6:43 PM MST
Moon 6:11 AM MST (1/10) 4:20 PM MST (1/10)
Length of Visible Light 10h 39m
Length of Day
9h 41m
Waning Crescent, 2% of the Moon is Illuminated
Jan 10
Waning Crescent
Jan 11
New
Jan 18
First Quarter
Jan 26
Full
Feb 3
Last Quarter

Hourly Weather History & Observations

Time (MST) Temp. Windchill Dew Point Humidity Pressure Visibility Wind Dir Wind Speed Gust Speed Precip Events Conditions
12:53 AM 10.9 °F -0.8 °F 7.0 °F 84% 30.18 in 10.0 mi SSE 8.1 mph - N/A   Clear
1:53 AM 10.9 °F -0.8 °F 6.1 °F 81% 30.14 in 10.0 mi SSE 8.1 mph - N/A   Clear
2:53 AM 9.0 °F -3.2 °F 3.9 °F 80% 30.11 in 10.0 mi SE 8.1 mph - N/A   Clear
3:53 AM 12.9 °F 1.6 °F 7.0 °F 77% 30.09 in 10.0 mi SSE 8.1 mph - N/A   Clear
4:53 AM 10.9 °F -0.8 °F 6.1 °F 81% 30.07 in 10.0 mi SE 8.1 mph - N/A   Clear
5:53 AM 18.0 °F 12.7 °F 10.0 °F 71% 30.06 in 10.0 mi South 3.5 mph - N/A   Clear
6:53 AM 18.0 °F 12.7 °F 10.0 °F 71% 30.07 in 10.0 mi SSE 3.5 mph - N/A   Clear
8:53 AM 19.0 °F 11.1 °F 12.0 °F 74% 30.04 in 10.0 mi South 5.8 mph - N/A   Clear
9:53 AM 28.0 °F 21.7 °F 16.0 °F 61% 29.98 in 10.0 mi ESE 5.8 mph - N/A   Clear
10:53 AM 32.0 °F 25.6 °F 15.1 °F 50% 29.95 in 10.0 mi Variable 6.9 mph 18.4 mph N/A   Clear
11:53 AM 32.0 °F 26.4 °F 16.0 °F 52% 29.90 in 10.0 mi North 5.8 mph - N/A   Clear
12:53 PM 35.1 °F - 19.0 °F 52% 29.85 in 10.0 mi Calm Calm - N/A   Clear
1:53 PM 39.0 °F - 21.0 °F 49% 29.78 in 10.0 mi North - - N/A   Partly Cloudy
2:53 PM 45.0 °F 41.8 °F 21.9 °F 40% 29.74 in 10.0 mi NW 5.8 mph - N/A   Mostly Cloudy
3:53 PM 41.0 °F 36.4 °F 23.0 °F 49% 29.73 in 10.0 mi North 6.9 mph - N/A   Overcast
4:53 PM 39.9 °F 37.8 °F 21.9 °F 49% 29.74 in 10.0 mi ESE 3.5 mph - N/A   Overcast
5:53 PM 43.0 °F 38.2 °F 25.0 °F 49% 29.68 in 10.0 mi SSE 8.1 mph - N/A   Mostly Cloudy
6:53 PM 43.0 °F 37.7 °F 25.0 °F 49% 29.65 in 10.0 mi SE 9.2 mph - N/A   Clear
7:53 PM 36.0 °F 31.1 °F 24.1 °F 62% 29.65 in 10.0 mi ESE 5.8 mph - N/A   Clear
8:53 PM 34.0 °F 28.8 °F 21.9 °F 61% 29.62 in 10.0 mi ESE 5.8 mph - N/A   Clear
10:53 PM 39.9 °F 32.5 °F 23.0 °F 51% 29.51 in 10.0 mi SSW 12.7 mph 23.0 mph N/A   Clear
11:45 PM 39.2 °F 32.0 °F 26.6 °F 61% 29.54 in 10.0 mi SSW 11.5 mph 29.9 mph N/A   Mostly Cloudy
11:53 PM 37.0 °F 30.4 °F 25.0 °F 62% 29.50 in 10.0 mi SW 9.2 mph - N/A   Scattered Clouds